Location: Unspecified
(50.7830°N, 0.0000°E)
Time: 10:44:37
(UTC+00:00)

CSL-04 DEB - Visible Passes

Search period start: 04 April 2026 00:00
Search period end: 14 April 2026 00:00
Orbit: 700 x 853 km, 98.9° (Epoch: 28 March)

Date Brightness Start Highest point End Pass type
(mag) Time Alt. Az. Time Alt. Az. Time Alt. Az.
4 Apr ? 19:42:57 10° WSW 19:45:37 14° W 19:48:20 10° NW visible
5 Apr ? 19:07:12 10° SW 19:11:39 25° W 19:16:10 10° NW visible
7 Apr ? 19:41:26 10° WSW 19:44:17 14° W 19:47:10 10° NW visible
10 Apr ? 19:39:57 10° WSW 19:42:57 15° W 19:45:58 10° NW visible
13 Apr ? 19:38:29 10° WSW 19:41:37 15° W 19:44:45 10° NW visible
